Location: ??????
(55.7522°N, 37.6156°E)
Time: 04:05:39
(UTC+00:00)

Cosmos 1892 - Pass Details

Date: 14 June 2025
Orbit: 364 x 371 km, 82.5° (Epoch: 11 July)

Event Time Altitude Azimuth Distance (km) Brightness Sun altitude
Exits shadow 19:43:41 10° 135° (SE) 1,423 4.3 -7.8°
Reaches altitude 10° 19:43:47 10° 134° (SE) 1,394 4.3 -7.8°
Drops below altitude 10° 19:48:01 10° 44° (NE) 1,397 5.2 -8.0°
Enters shadow 20:40:24 -73° 194° (SSW) 12,589 9.6 -10.2°
Maximum altitude 21:18:28 34° 288° (WNW) 645 3.4 -10.9°
Sets 21:23:22 0° 7° (N) 2,251 8.0 -10.9°
